TimeEST,TemperatureF,Dew PointF,Humidity,Sea Level PressureIn,VisibilityMPH,Wind Direction,Wind SpeedMPH,Gust SpeedMPH,PrecipitationIn,Events,Conditions,WindDirDegrees,DateUTC
12:45 AM,41.0,41.0,100,29.94,1.0,Calm,Calm,-,N/A,,Overcast,0,2013-02-24 05:45:00
12:53 AM,41.0,41.0,100,29.94,1.0,Calm,Calm,-,N/A,,Overcast,0,2013-02-24 05:53:00
1:20 AM,42.8,42.8,100,29.95,0.5,Calm,Calm,-,N/A,Fog,Fog,0,2013-02-24 06:20:00
1:33 AM,42.8,42.8,100,29.95,0.2,Calm,Calm,-,N/A,Fog,Fog,0,2013-02-24 06:33:00
1:53 AM,43.0,43.0,100,29.94,0.2,Calm,Calm,-,N/A,Fog,Fog,0,2013-02-24 06:53:00
2:53 AM,42.1,42.1,100,29.95,0.2,Calm,Calm,-,N/A,Fog,Fog,0,2013-02-24 07:53:00
3:53 AM,41.0,41.0,100,29.95,0.2,Calm,Calm,-,N/A,Fog,Fog,0,2013-02-24 08:53:00
4:44 AM,39.2,39.2,100,29.97,0.5,Calm,Calm,-,N/A,Fog,Fog,0,2013-02-24 09:44:00
4:53 AM,39.0,39.0,100,29.96,0.2,Calm,Calm,-,N/A,Fog,Fog,0,2013-02-24 09:53:00
5:53 AM,37.9,37.9,100,29.98,0.2,Calm,Calm,-,N/A,Fog,Fog,0,2013-02-24 10:53:00
6:53 AM,36.0,36.0,100,30.00,0.2,Calm,Calm,-,N/A,Fog,Fog,0,2013-02-24 11:53:00
7:53 AM,36.0,36.0,100,30.00,0.2,Calm,Calm,-,N/A,Fog,Fog,0,2013-02-24 12:53:00
8:22 AM,37.4,37.4,100,30.03,0.5,Variable,4.6,-,N/A,Fog,Fog,0,2013-02-24 13:22:00
8:32 AM,37.4,37.4,100,30.04,2.0,Calm,Calm,-,N/A,,Overcast,0,2013-02-24 13:32:00
8:42 AM,39.2,39.2,100,30.05,7.0,Calm,Calm,-,N/A,,Mostly Cloudy,0,2013-02-24 13:42:00
8:49 AM,37.4,37.4,100,30.05,8.0,Calm,Calm,-,N/A,,Scattered Clouds,0,2013-02-24 13:49:00
8:53 AM,39.0,39.0,100,30.04,8.0,Calm,Calm,-,N/A,,Partly Cloudy,0,2013-02-24 13:53:00
9:53 AM,44.1,37.9,79,30.06,10.0,Calm,Calm,-,N/A,,Clear,0,2013-02-24 14:53:00
10:53 AM,50.0,35.1,57,30.06,10.0,Variable,3.5,-,N/A,,Clear,0,2013-02-24 15:53:00
11:53 AM,53.1,33.1,47,30.05,10.0,Variable,4.6,-,N/A,,Clear,0,2013-02-24 16:53:00
12:53 PM,55.0,30.9,40,30.03,10.0,NNW,8.1,-,N/A,,Clear,330,2013-02-24 17:53:00
1:53 PM,59.0,30.9,35,30.01,10.0,Variable,3.5,-,N/A,,Clear,0,2013-02-24 18:53:00
2:53 PM,60.1,30.9,33,30.00,10.0,Variable,3.5,-,N/A,,Clear,0,2013-02-24 19:53:00
3:53 PM,61.0,32.0,34,29.99,10.0,North,5.8,-,N/A,,Clear,350,2013-02-24 20:53:00
4:53 PM,61.0,32.0,34,29.99,10.0,Variable,5.8,-,N/A,,Clear,0,2013-02-24 21:53:00
5:53 PM,57.9,30.0,35,30.00,10.0,NNE,6.9,-,N/A,,Clear,20,2013-02-24 22:53:00
6:53 PM,48.9,36.0,61,30.01,10.0,Calm,Calm,-,N/A,,Clear,0,2013-02-24 23:53:00
7:53 PM,43.0,37.0,80,30.01,-9999.0,North,-9999.0,-,N/A,,Unknown,0,2013-02-25 00:53:00
8:53 PM,43.0,33.1,68,30.02,10.0,Calm,Calm,-,N/A,,Unknown,0,2013-02-25 01:53:00
9:53 PM,39.0,34.0,82,30.01,10.0,Calm,Calm,-,N/A,,Clear,0,2013-02-25 02:53:00
10:53 PM,36.0,34.0,93,30.02,10.0,Calm,Calm,-,N/A,,Clear,0,2013-02-25 03:53:00
11:53 PM,35.1,33.1,92,29.99,10.0,Calm,Calm,-,N/A,,Clear,0,2013-02-25 04:53:00